Powrót do katalogu

FENGYUN 1C DEB

AktywnySSO
NORAD 35128·DEBRIS·🇨🇳 China

Wystrzelony May 10, 1999 z Taiyuan Satellite Launch Center

Loading…

Następne Przeloty (najbliższe 24 godziny)

TLE

Starzejące sięSource: Space-Track

Epoka: Sep 9, 2026, 10:58 UTC

1 35128U 99025DLG 26252.45737321  .00006102  00000-0  17456-2 0  9997
2 35128  98.3322 127.3582 0081763 250.6049 108.6291 14.43453337668708

Śledź FENGYUN 1C DEB w czasie rzeczywistym z AllMySat

Download on the App Store